Printer-friendly version

IAU Minor Planet Center

Minor Planet Center

(63) Ausonia

Orbital Elements

The following orbital elements are taken from MPC 35405:
   (63) Ausonia
Epoch 2002 May 6.0 TT = JDT 2452400.5                   Goffin
M 291.04423              (2000.0)            P               Q
n   0.26589531     Peri.  296.03033     +0.07131178     +0.99673587
a   2.3951291      Node   337.96026     -0.87531399     +0.04434198
e   0.1259520      Incl.    5.78826     -0.47826775     +0.06746399
P   3.71           H    7.55          G   0.25           U   0
From 940 observations at 76 oppositions, 1861-1998, mean residual 0".53.
An explanation of the orbital elements is available.

These orbital elements are also available in forms suitable for loading into a number of popular planetarium-type software programs.


Ephemeris

The following ephemeris is at intervals of five days. A daily ephemeris covering the same time interval is also available.

Date    TT    R. A. (2000) Decl.     Delta      r     Elong.  Phase     V
 
2002 01 16    12 12.19   -01 52.9    1.930    2.474   112.1    21.6    11.9
2002 01 21    12 13.69   -02 14.6    1.863    2.467   116.7    20.9    11.8
2002 01 26    12 14.57   -02 32.9    1.799    2.461   121.5    20.0    11.7
2002 01 31    12 14.77   -02 47.7    1.738    2.454   126.4    18.9    11.5
2002 02 05    12 14.27   -02 58.7    1.680    2.447   131.5    17.6    11.4
2002 02 10    12 13.06   -03 05.8    1.626    2.441   136.8    16.1    11.3
2002 02 15    12 11.12   -03 08.8    1.576    2.434   142.3    14.4    11.2
2002 02 20    12 08.48   -03 07.8    1.532    2.427   147.9    12.5    11.1
2002 02 25    12 05.17   -03 02.9    1.493    2.420   153.7    10.4    10.9
2002 03 02    12 01.28   -02 54.2    1.460    2.413   159.6     8.2    10.8
2002 03 07    11 56.88   -02 42.1    1.433    2.406   165.6     5.9    10.6
2002 03 12    11 52.10   -02 27.2    1.412    2.399   171.5     3.5    10.5
2002 03 17    11 47.09   -02 10.0    1.399    2.392   176.3     1.5    10.3
2002 03 22    11 41.99   -01 51.5    1.392    2.385   174.3     2.4    10.4
2002 03 27    11 37.00   -01 32.4    1.392    2.378   168.6     4.8    10.5
2002 04 01    11 32.25   -01 13.6    1.399    2.371   162.6     7.2    10.6
2002 04 06    11 27.89   -00 56.0    1.412    2.364   156.7     9.6    10.7
2002 04 11    11 24.04   -00 40.3    1.431    2.357   150.8    12.0    10.8
2002 04 16    11 20.82   -00 27.2    1.456    2.350   145.1    14.1    10.9
2002 04 21    11 18.29   -00 17.2    1.485    2.343   139.6    16.1    11.0
2002 04 26    11 16.49   -00 10.6    1.519    2.336   134.3    17.9    11.1
2002 05 01    11 15.45   -00 07.8    1.557    2.329   129.2    19.6    11.2
2002 05 06    11 15.15   -00 08.7    1.598    2.322   124.3    21.0    11.3
2002 05 11    11 15.59   -00 13.6    1.642    2.315   119.7    22.3    11.4
2002 05 16    11 16.75   -00 22.2    1.689    2.308   115.2    23.4    11.5
2002 05 21    11 18.58   -00 34.7    1.737    2.301   110.9    24.3    11.6
2002 05 26    11 21.05   -00 50.8    1.787    2.294   106.8    25.0    11.6
2002 05 31    11 24.11   -01 10.4    1.838    2.287   102.8    25.6    11.7
2002 06 05    11 27.73   -01 33.3    1.889    2.280    99.0    26.1    11.8
2002 06 10    11 31.86   -01 59.3    1.942    2.274    95.4    26.4    11.8
2002 06 15    11 36.47   -02 28.2    1.994    2.267    91.9    26.6    11.9

Back to Bright Minor Planets

Astronomical Headlines Index


Valid HTML 4.01!